Voltar ao catálogo

CHINASAT-3A

AtivoComunicaçõesGEO
NORAD 60179·PAYLOAD·🇨🇳 China

Lançado Jun 29, 2024 de Wenchang Space Launch Site

Loading…

TLE

AtualizadoSource: Space-Track

Época: Sep 14, 2026, 22:50 UTC

1 60179U 24122A   26257.95164088 -.00000321  00000-0  00000+0 0  9993
2 60179   0.0180 344.4120 0002464 220.3167 233.3206  1.00275438  8208

Acompanhe CHINASAT-3A em tempo real com AllMySat

Download on the App Store